Flag for China Weather past 2 weeks in Xiamen, Fujian, China

Now
91 °F

Scattered clouds.


Feels Like: 111 °F
Forecast: 79 / 88 °F
Wind: 6 mph from West

Location: Xiamen Airport

Current Time: Jul 3, 2015 at 11:41:16 AM

Latest Report: Jul 3, 2015 at 11:00 AM


Visibility: 5 mi

Pressure: 29.62 "Hg

Humidity: 71%

Dew point: 81 °F

Location of XiamenLocation

Historic Weather in Xiamen — Graph

°F

Xiamen temperature yesterday

Maximum temperature yesterday: 95 °F (at 11:00 AM)
Minimum temperature yesterday: 77 °F (at 5:00 PM)
Average temperature yesterday: 86 °F

Past Weeks' High & Low Weather Summary

 TemperatureHumidityPressure
High99 °F (Jun 18, 2:00 PM)100% (Jun 19, 5:00 AM)29.83 "Hg (Jun 19, 5:00 AM)
Low77 °F (Jul 2, 5:00 PM)44% (Jun 18, 2:00 PM)29.53 "Hg (Jul 1, 3:00 PM)
Average86 °F83%29.70 "Hg
* Reported Jun 18 10:00 AM — Jul 3 10:00 AM, Xiamen, Weather by CustomWeather, © 2015

Note: Actual official high and low records may vary slightly from our data, if they occured in-between our weather recording intervals... More about our weather records

Advertising

Xiamen weather history for previous 24 hours

 ConditionsComfort  
Time TempWeatherWind HumidityBarometerVisibility
10:00 AM
Fri, Jul 3
90 °FScattered clouds.6 mph71%29.62 "Hg5 mi
9:00 AM88 °FPartly sunny.1 mph79%29.62 "Hg4 mi
8:00 AM84 °FScattered clouds.1 mph89%29.62 "Hg4 mi
7:00 AM84 °FScattered clouds.3 mph89%29.62 "Hg4 mi
6:00 AM82 °FBroken clouds.1 mph94%29.62 "Hg4 mi
5:00 AM82 °FPartly cloudy.3 mph94%29.59 "Hg4 mi
4:00 AM82 °FFog.3 mph94%29.59 "Hg3 mi
3:00 AM81 °FFog.1 mph100%29.59 "Hg3 mi
2:00 AM81 °FFog.3 mph100%29.59 "Hg3 mi
1:00 AM82 °FPassing clouds.1 mph94%29.62 "Hg4 mi
12:00 AM82 °FPassing clouds.1 mph89%29.62 "Hg4 mi
11:00 PM
Thu, Jul 2
82 °FPassing clouds.1 mph89%29.62 "Hg6 mi
10:00 PM82 °FPassing clouds.3 mph89%29.62 "HgN/A
9:00 PM81 °FPassing clouds.3 mph94%29.62 "HgN/A
8:00 PM81 °FPassing clouds.3 mph94%29.62 "HgN/A
7:00 PM81 °FPassing clouds.3 mph89%29.59 "HgN/A
6:00 PM81 °FScattered clouds.3 mph94%29.59 "HgN/A
5:00 PM77 °FStrong thunderstorms. Scattered clouds.15 mph94%29.59 "Hg2 mi
4:00 PM84 °FScattered clouds.6 mph70%29.56 "HgN/A
3:00 PM91 °FPassing clouds.15 mph71%29.53 "HgN/A
2:00 PM95 °FPassing clouds.13 mph63%29.53 "HgN/A
1:00 PM93 °FPassing clouds.10 mph67%29.56 "HgN/A
12:00 PM93 °FPassing clouds.10 mph67%29.59 "HgN/A
11:00 AM95 °FPassing clouds.10 mph60%29.59 "HgN/A
Weather by CustomWeather, © 2015

See weather overviewHow to use our weather pages